Wind_Speed
32 33 34 34 35 36 36 36 36 36 37 38 39 38 38 40 41 42 42 43 44 45 45 46 47 48 48 48 48 48 47 47 47 47 47 46 46 45 44 43 43 42 42 41
32 32 32 33 34 35 36 36 36 36 37 38 38 38 38 39 41 41 41 41 43 44 45 45 46 47 48 49 49 49 49 49 49 48 48 48 48 47 46 46 45 44 44 43
30 31 31 32 33 34 35 35 36 37 37 38 39 38 37 38 39 40 40 41 41 42 43 44 45 46 47 48 48 49 49 50 50 50 50 50 50 48 48 47 47 46 46 45
28 29 30 31 32 33 34 34 35 36 37 37 37 39 36 36 37 39 40 40 40 42 43 44 45 45 46 47 48 49 49 50 50 51 51 50 50 50 48 47 47 47 47 46
27 27 28 29 30 32 33 34 34 35 36 37 37 38 36 36 37 37 38 39 39 40 41 43 43 44 45 46 48 49 50 50 51 51 51 51 51 51 49 49 48 48 48 48
26 27 27 28 29 29 31 32 33 34 35 37 36 38 37 35 36 36 37 38 39 39 40 41 42 42 43 44 46 48 49 51 52 52 52 52 51 51 51 51 50 49 49 49
25 25 26 26 27 27 28 29 30 31 33 34 34 36 37 35 35 36 37 38 38 39 40 41 42 42 43 44 45 47 48 50 50 51 52 52 51 51 51 51 51 51 50 48
24 24 24 25 25 25 26 27 28 30 32 32 32 34 34 34 34 35 37 37 38 39 40 40 41 42 42 43 44 45 46 48 49 50 51 51 51 51 51 51 50 51 50 48
23 23 23 23 24 25 25 26 27 29 31 31 31 32 31 32 33 33 34 35 37 38 39 40 41 42 42 42 43 44 45 46 48 49 50 51 51 51 51 51 50 50 49 49
22 23 21 22 23 23 24 25 26 28 30 30 30 29 29 29 31 32 32 33 35 36 37 38 40 41 41 42 43 43 44 45 47 48 49 51 51 51 52 52 51 50 49 49
21 22 21 21 21 22 22 23 24 26 28 30 30 28 27 28 28 30 31 33 34 35 36 36 37 38 39 41 42 43 43 44 45 47 48 49 50 51 52 52 50 49 49 48
21 21 21 21 21 22 22 22 23 25 26 28 29 27 26 27 27 29 30 31 32 32 33 34 34 35 36 37 39 41 42 43 44 45 46 47 48 49 50 50 50 49 49 48
21 22 22 22 22 22 22 22 23 24 26 26 27 25 25 27 27 28 29 30 30 31 31 31 31 32 33 34 35 37 38 39 40 41 42 43 44 45 47 48 48 48 47 48
22 22 22 23 23 23 23 22 22 24 25 25 24 23 23 25 26 27 28 29 29 29 30 30 31 31 31 32 32 32 34 35 36 37 38 39 41 43 45 47 47 47 47 47
22 22 22 22 23 23 23 23 23 24 24 25 24 24 24 25 26 26 26 27 28 28 28 28 29 29 29 29 29 30 31 32 33 35 37 37 39 40 42 44 45 46 46 46
21 21 21 21 22 23 22 23 24 24 24 24 23 23 24 25 25 25 25 26 26 26 28 27 27 29 28 27 27 29 29 30 32 33 35 36 37 38 39 41 43 44 45 45
21 21 21 21 21 22 22 22 23 24 23 23 23 22 23 23 23 24 24 24 24 25 25 25 26 27 28 28 28 29 29 30 31 32 32 33 35 36 37 39 41 42 43 44
21 20 21 21 21 22 22 22 23 23 23 23 23 23 23 23 23 23 24 24 23 23 24 25 25 26 27 27 28 28 29 31 32 33 33 33 35 35 36 37 39 40 42 43
20 21 22 22 22 22 21 22 23 23 23 23 23 23 23 24 24 23 23 23 23 23 23 24 25 26 27 27 27 27 28 29 30 31 32 33 34 35 36 36 37 39 40 41
20 21 22 22 23 22 21 22 22 23 23 22 23 23 24 24 23 22 22 23 23 22 23 23 24 26 27 27 27 27 27 28 28 29 30 31 32 34 35 36 37 38 39 40
20 21 21 21 21 21 21 21 22 22 22 22 22 22 23 22 22 21 21 21 21 21 21 22 24 25 26 26 26 27 27 27 27 28 29 30 32 34 35 36 36 37 37 39
21 21 21 21 21 20 21 21 21 21 21 21 21 21 21 21 21 20 21 21 21 21 21 22 23 24 24 24 24 25 26 27 27 28 29 30 32 33 34 34 35 36 36 37
20 20 21 21 20 21 20 21 20 21 20 20 21 21 21 21 21 20 21 21 21 21 22 22 22 22 22 23 23 23 24 25 26 28 29 30 30 31 31 32 33 34 34 35
19 19 20 20 20 21 21 21 21 21 21 21 21 21 22 22 22 22 22 22 22 21 22 22 21 21 22 23 23 23 23 24 25 26 27 27 27 28 29 30 31 31 31 32
19 20 20 20 21 21 20 20 21 21 21 21 21 22 22 22 22 22 22 21 20 20 21 21 21 21 22 23 23 23 23 23 23 23 23 24 25 26 27 28 28 29 29 29
20 20 20 20 20 20 21 21 21 21 22 22 22 22 22 21 21 22 21 20 20 20 20 20 20 21 21 22 22 22 22 21 22 22 22 23 23 24 25 25 26 26 26 26
Wind_Direction
266 264 263 263 262 262 261 261 260 259 260 261 261 260 258 257 256 254 253 252 250 249 250 250 250 250 250 251 252 251 251 251 251 251 251 251 251 252 252 254 254 253 254 254
266 264 263 262 262 261 260 260 260 260 261 262 262 260 259 258 257 256 255 253 250 249 250 251 252 251 251 252 251 251 250 250 251 251 250 250 251 250 250 252 253 252 252 253
266 265 264 263 262 262 261 261 261 261 261 262 262 260 259 259 259 257 255 253 251 251 251 252 251 251 252 252 251 250 249 249 249 250 250 250 250 250 250 251 252 252 252 252
266 265 263 263 262 262 262 263 263 262 262 263 264 264 259 259 259 258 256 254 253 253 253 253 253 252 252 252 252 251 250 249 249 249 249 249 249 249 250 251 251 251 250 251
268 267 266 264 265 264 265 265 264 263 262 263 263 265 263 260 259 259 257 256 255 255 255 254 254 253 253 252 251 251 250 250 249 248 248 249 249 248 248 249 250 250 249 250
270 269 268 267 267 267 268 268 266 263 263 264 264 265 265 262 261 259 258 258 257 257 257 255 255 255 254 253 252 252 251 251 250 249 248 248 248 248 248 249 250 249 249 251
271 270 270 269 269 268 270 269 268 266 265 266 267 267 267 266 263 260 259 258 258 258 257 255 255 255 255 254 254 253 252 251 250 249 248 248 248 248 248 248 249 249 250 251
273 272 270 271 271 271 271 271 270 270 270 270 269 269 269 269 266 263 261 260 259 259 258 256 256 256 256 255 253 253 253 252 250 249 248 247 247 248 247 247 248 248 249 250
275 273 273 272 272 272 272 270 271 271 272 273 272 271 270 270 268 266 264 263 262 260 259 258 258 257 257 255 254 254 253 253 252 250 248 247 246 246 246 246 247 247 247 249
277 275 272 272 272 273 275 274 272 272 273 274 274 274 274 272 271 269 266 265 264 263 262 260 258 257 256 256 256 255 255 254 253 251 248 246 245 245 245 246 247 246 247 249
277 276 274 272 273 275 277 276 274 273 274 276 277 276 275 275 273 271 268 266 266 265 263 262 259 259 260 259 258 256 256 255 253 251 248 245 244 243 245 246 247 247 248 249
278 278 276 274 275 276 276 276 275 277 278 278 278 278 277 277 275 273 270 267 265 264 264 262 260 260 260 259 258 257 257 255 254 251 248 246 244 243 244 245 245 246 248 250
279 280 279 276 275 276 278 277 275 277 279 280 280 281 281 280 278 276 272 269 266 265 264 263 262 261 261 262 260 258 256 255 254 252 248 246 245 245 245 244 245 247 249 251
278 280 281 280 280 279 278 278 276 277 280 282 281 282 282 281 279 276 272 270 268 267 266 266 267 266 266 266 264 260 257 256 254 250 248 247 248 247 245 245 246 248 249 251
277 278 279 279 278 278 276 275 276 278 282 282 283 282 283 281 279 277 273 271 270 268 266 266 266 267 268 267 265 262 258 256 253 251 250 249 249 248 247 247 247 249 250 251
275 276 278 278 277 277 276 275 277 279 282 284 283 284 282 282 280 278 276 275 274 271 267 265 265 267 266 265 264 262 259 257 256 255 252 250 250 250 250 249 249 250 250 251
275 276 276 277 278 278 276 277 279 281 283 285 283 283 282 282 281 277 277 278 276 272 270 267 267 270 268 266 266 264 260 259 260 258 256 254 252 251 252 252 252 250 250 251
276 276 277 278 278 278 281 278 278 281 282 284 283 283 283 282 281 279 278 278 276 273 270 269 269 270 270 268 266 265 264 263 262 259 258 257 254 252 252 253 252 252 251 251
275 276 277 278 279 281 281 282 283 282 282 282 283 282 283 282 282 280 277 277 276 273 270 270 271 272 271 270 268 265 264 266 264 261 259 257 254 252 253 253 254 254 253 253
276 277 280 281 282 284 284 284 284 284 283 283 283 283 283 283 281 279 277 277 277 274 274 275 275 275 274 271 269 266 266 266 264 260 259 256 255 254 255 256 257 258 257 256
277 279 281 283 284 286 287 286 286 286 288 286 284 284 284 283 282 280 277 278 278 277 276 278 278 277 276 274 270 268 267 267 265 261 260 258 257 257 258 259 260 261 260 259
279 280 281 282 284 286 290 289 288 288 287 287 285 284 283 283 284 282 279 279 279 278 278 279 280 280 277 276 274 270 268 267 265 264 263 261 260 260 260 260 261 261 260 259
279 280 282 283 284 285 288 291 291 289 287 287 285 284 283 282 283 283 281 281 280 279 279 280 280 279 276 275 274 272 270 269 267 265 264 263 263 262 262 261 261 261 260 260
279 282 283 282 282 284 287 288 288 288 288 287 286 285 284 283 282 282 282 283 282 280 278 278 277 277 276 276 275 274 273 271 270 268 266 264 264 263 263 263 262 262 262 261
281 282 284 285 283 283 286 287 287 287 287 288 286 286 285 283 283 283 284 283 282 280 278 277 277 277 278 278 278 276 274 274 271 269 269 268 266 265 264 264 264 263 263 263
280 283 285 286 286 284 285 286 286 286 287 288 288 287 286 286 284 284 284 282 281 281 280 279 278 278 279 280 280 278 277 277 275 273 272 271 269 269 268 267 266 266 266 265
Height
5681 5682 5682 5683 5682 5683 5683 5683 5684 5685 5684 5684 5685 5686 5688 5687 5688 5689 5691 5693 5695 5698 5700 5702 5705 5707 5709 5712 5714 5717 5720 5722 5724 5726 5729 5732 5734 5736 5739 5741 5743 5745 5747 5749
5672 5673 5673 5672 5672 5672 5672 5673 5674 5675 5674 5673 5674 5675 5676 5676 5677 5678 5680 5681 5684 5686 5688 5690 5692 5694 5697 5699 5701 5703 5706 5709 5712 5714 5717 5720 5722 5725 5727 5730 5732 5735 5737 5739
5663 5664 5663 5663 5663 5663 5663 5664 5665 5665 5664 5663 5663 5665 5666 5666 5666 5667 5668 5670 5672 5674 5676 5678 5680 5682 5684 5686 5688 5690 5693 5695 5699 5701 5704 5707 5709 5712 5715 5718 5721 5724 5726 5728
5654 5654 5654 5654 5654 5653 5654 5654 5654 5654 5653 5653 5653 5653 5657 5656 5655 5656 5657 5659 5661 5662 5664 5665 5667 5669 5670 5672 5674 5677 5679 5682 5685 5688 5691 5694 5697 5701 5704 5707 5709 5712 5714 5717
5646 5646 5645 5645 5645 5645 5645 5645 5644 5644 5643 5643 5643 5642 5647 5646 5646 5646 5647 5648 5650 5651 5652 5653 5655 5656 5658 5659 5661 5664 5666 5668 5671 5675 5678 5681 5685 5688 5692 5694 5697 5700 5703 5705
5638 5638 5637 5637 5637 5636 5636 5635 5635 5634 5634 5634 5635 5633 5635 5636 5637 5638 5638 5638 5639 5640 5641 5642 5643 5644 5646 5647 5648 5650 5652 5655 5658 5661 5664 5668 5671 5675 5679 5682 5685 5687 5690 5693
5631 5630 5629 5629 5629 5629 5628 5628 5626 5625 5624 5625 5626 5624 5625 5627 5627 5627 5628 5628 5628 5629 5630 5631 5632 5633 5634 5635 5636 5637 5639 5641 5644 5647 5650 5654 5658 5662 5665 5669 5672 5675 5678 5680
5623 5624 5623 5622 5621 5621 5620 5619 5619 5618 5617 5617 5616 5615 5617 5617 5617 5617 5617 5617 5617 5618 5619 5619 5620 5621 5622 5623 5623 5624 5625 5628 5630 5633 5637 5641 5645 5648 5652 5655 5659 5662 5666 5669
5616 5616 5616 5615 5614 5613 5612 5611 5611 5610 5608 5607 5607 5607 5608 5607 5606 5606 5606 5606 5606 5607 5607 5607 5608 5609 5609 5610 5611 5612 5613 5615 5617 5620 5623 5627 5631 5635 5639 5643 5646 5650 5653 5656
5609 5609 5609 5608 5607 5606 5605 5604 5603 5601 5599 5598 5598 5598 5599 5598 5597 5597 5597 5596 5596 5596 5596 5596 5596 5597 5597 5598 5599 5600 5601 5602 5604 5606 5609 5613 5618 5622 5626 5630 5634 5637 5640 5643
5603 5602 5602 5601 5601 5600 5599 5598 5595 5594 5593 5591 5590 5593 5591 5590 5589 5588 5587 5586 5586 5586 5585 5585 5585 5586 5586 5586 5587 5588 5588 5589 5591 5593 5596 5599 5604 5608 5613 5617 5621 5625 5628 5631
5596 5595 5595 5595 5594 5592 5591 5590 5589 5588 5586 5584 5582 5586 5583 5581 5580 5578 5577 5576 5576 5575 5575 5575 5575 5575 5575 5575 5575 5576 5576 5577 5578 5581 5583 5587 5591 5595 5600 5604 5608 5612 5615 5618
5589 5589 5588 5588 5589 5587 5585 5584 5582 5580 5579 5576 5575 5579 5575 5573 5571 5569 5568 5567 5566 5566 5565 5565 5565 5564 5564 5564 5564 5564 5564 5565 5566 5568 5571 5575 5579 5584 5588 5592 5596 5599 5602 5605
5583 5582 5582 5582 5580 5579 5578 5577 5575 5573 5571 5570 5569 5569 5568 5565 5563 5561 5559 5558 5558 5557 5557 5557 5556 5556 5555 5555 5555 5554 5554 5555 5556 5558 5561 5565 5568 5572 5576 5580 5583 5586 5590 5593
5576 5576 5575 5574 5573 5572 5571 5570 5568 5566 5565 5563 5563 5561 5560 5557 5555 5553 5552 5551 5550 5549 5549 5549 5549 5548 5548 5547 5547 5546 5546 5547 5548 5549 5552 5554 5557 5561 5564 5568 5571 5575 5578 5581
5569 5569 5568 5568 5566 5564 5564 5563 5562 5560 5558 5557 5555 5555 5553 5550 5548 5546 5544 5543 5542 5542 5541 5541 5541 5541 5540 5540 5539 5539 5538 5539 5540 5541 5543 5545 5548 5551 5554 5557 5560 5563 5566 5569
5562 5562 5561 5561 5559 5557 5557 5557 5555 5554 5552 5551 5549 5549 5545 5543 5541 5539 5538 5536 5535 5534 5534 5534 5534 5533 5533 5532 5532 5532 5531 5531 5532 5533 5535 5536 5539 5542 5544 5547 5549 5552 5554 5557
5556 5555 5554 5553 5553 5551 5554 5550 5549 5547 5546 5544 5542 5541 5539 5537 5535 5533 5531 5530 5529 5528 5527 5527 5526 5526 5526 5525 5524 5524 5524 5523 5524 5525 5526 5528 5530 5532 5534 5537 5539 5541 5543 5546
5550 5549 5548 5547 5545 5545 5546 5544 5542 5540 5539 5538 5536 5534 5532 5530 5529 5528 5525 5524 5522 5521 5521 5520 5520 5519 5518 5518 5517 5516 5516 5516 5516 5517 5518 5519 5521 5523 5525 5527 5529 5531 5532 5534
5544 5543 5542 5540 5538 5538 5540 5538 5535 5534 5533 5531 5529 5527 5526 5524 5523 5522 5519 5518 5516 5515 5514 5514 5513 5512 5511 5510 5510 5509 5508 5508 5509 5509 5510 5511 5512 5514 5516 5518 5519 5520 5522 5523
5538 5536 5536 5534 5532 5532 5533 5531 5529 5529 5528 5525 5522 5521 5519 5517 5516 5515 5513 5512 5510 5509 5508 5507 5507 5506 5505 5504 5503 5502 5501 5501 5501 5501 5502 5503 5504 5505 5507 5508 5509 5510 5511 5512
5531 5530 5529 5528 5527 5529 5526 5524 5523 5522 5519 5517 5516 5514 5513 5511 5510 5508 5507 5506 5505 5503 5502 5501 5500 5499 5498 5497 5496 5495 5495 5494 5494 5494 5494 5494 5495 5496 5497 5498 5499 5500 5500 5501
5525 5525 5523 5523 5523 5521 5519 5517 5516 5514 5513 5511 5509 5508 5507 5505 5504 5503 5501 5500 5499 5498 5496 5495 5494 5493 5491 5490 5489 5489 5488 5487 5486 5486 5486 5486 5486 5486 5487 5488 5489 5489 5490 5491
5519 5518 5517 5516 5515 5514 5512 5511 5509 5508 5506 5505 5503 5502 5500 5499 5498 5497 5495 5494 5493 5491 5490 5489 5488 5487 5486 5484 5483 5482 5481 5480 5479 5478 5478 5478 5478 5478 5478 5478 5479 5479 5480 5480
5513 5511 5510 5509 5509 5507 5506 5504 5503 5501 5500 5499 5497 5496 5494 5493 5491 5490 5489 5488 5486 5485 5484 5483 5482 5481 5480 5478 5477 5475 5474 5473 5472 5471 5471 5470 5470 5470 5470 5470 5470 5470 5471 5471
5507 5506 5505 5504 5503 5501 5500 5498 5497 5495 5494 5492 5491 5490 5488 5486 5485 5484 5482 5481 5480 5479 5478 5477 5476 5475 5474 5472 5471 5469 5468 5467 5466 5465 5464 5463 5463 5463 5463 5462 5462 5462 5462 5462